Chattanooga, TN

10:42 AM EDT on May 25, 2017 (GMT -0400)
Lovell

Weather History for KCHA - August, 2013

Change the Weather History Date:

Saturday, August 3, 2013

  Actual Average Record
Temperature  
Mean Temperature 77 °F 80 °F  
Max Temperature 85 °F 90 °F 101 °F (2011)
Min Temperature 69 °F 70 °F 58 °F (1965)
Cooling Degree Days 12 15  
Month to date cooling degree days 40 45  
Year to date cooling degree days 1020 1049  
Since 1 June cooling degree days 844 853  
Growing Degree Days 26 (Base 50)    
Moisture  
Dew Point 69 °F    
Average Humidity 78    
Maximum Humidity 97    
Minimum Humidity 58    
Precipitation  
Precipitation 0.00 in 0.14 in 1.71 in (1948)
Month to date precipitation 0.00 0.39  
Year to date precipitation 47.63 32.17  
Snow  
Snow 0.00 in - - ()
Month to date snowfall 0.0  
Since 1 June snowfall 0.0  
Snow Depth 0.00 in    
Sea Level Pressure  
Sea Level Pressure 30.03 in    
Wind  
Wind Speed 2 mph (WSW)    
Max Wind Speed 10 mph    
Max Gust Speed 15 mph    
Visibility 10 miles    
Events      
T = Trace of Precipitation, MM = Missing Value Source: NWS Daily Summary

Daily Weather History Graph

Daily Weather History Graph

Search for Another Location

Airport or City:

Trip Planner

Search our weather history database for the weather conditions in past years. The results will help you decide how hot, cold, wet, or windy it might be!

Date:

Astronomy

Aug. 03, 2013 Rise Set
Actual Time 6:51 AM EDT 8:41 PM EDT
Civil Twilight 6:24 AM EDT 9:09 PM EDT
Nautical Twilight 5:50 AM EDT 9:42 PM EDT
Astronomical Twilight 5:15 AM EDT 10:17 PM EDT
Moon 4:02 AM EDT (8/3) 6:22 PM EDT (8/3)
Length of Visible Light 14h 44m
Length of Day
13h 49m
Waning Crescent, 9% of the Moon is Illuminated
Aug 3
Waning Crescent
Aug 6
New
Aug 14
First Quarter
Aug 20
Full
Aug 28
Last Quarter

Hourly Weather History & Observations

Time (EDT) Temp. Heat Index Dew Point Humidity Pressure Visibility Wind Dir Wind Speed Gust Speed Precip Events Conditions
12:53 AM 73.9 °F - 68.0 °F 82% 30.03 in 10.0 mi Calm Calm - N/A   Clear
1:53 AM 72.0 °F - 68.0 °F 87% 30.02 in 10.0 mi Calm Calm - N/A   Clear
2:53 AM 69.1 °F - 66.9 °F 93% 30.02 in 10.0 mi Calm Calm - N/A   Clear
3:53 AM 70.0 °F - 68.0 °F 93% 30.01 in 9.0 mi Calm Calm - N/A   Clear
4:53 AM 70.0 °F - 66.9 °F 90% 30.00 in 9.0 mi Calm Calm - N/A   Clear
5:53 AM 69.1 °F - 66.0 °F 90% 30.01 in 7.0 mi Calm Calm - N/A   Mostly Cloudy
6:53 AM 69.1 °F - 66.9 °F 93% 30.02 in 9.0 mi Calm Calm - N/A   Mostly Cloudy
7:53 AM 71.1 °F - 66.9 °F 87% 30.04 in 10.0 mi Calm Calm - N/A   Mostly Cloudy
8:53 AM 75.0 °F - 68.0 °F 79% 30.04 in 10.0 mi Calm Calm - N/A   Mostly Cloudy
9:53 AM 77.0 °F - 68.0 °F 74% 30.05 in 10.0 mi Calm Calm - N/A   Mostly Cloudy
10:53 AM 80.1 °F 82.7 °F 68.0 °F 67% 30.05 in 10.0 mi SSW 3.5 mph - N/A   Mostly Cloudy
11:53 AM 82.9 °F 85.0 °F 66.0 °F 56% 30.05 in 10.0 mi West 5.8 mph - N/A   Mostly Cloudy
12:53 PM 84.0 °F 87.0 °F 68.0 °F 58% 30.05 in 10.0 mi West 5.8 mph - N/A   Mostly Cloudy
1:53 PM 84.0 °F 87.0 °F 68.0 °F 58% 30.05 in 10.0 mi WSW 6.9 mph - N/A   Mostly Cloudy
2:53 PM 84.0 °F 87.8 °F 69.1 °F 61% 30.05 in 10.0 mi West 6.9 mph - N/A   Overcast
3:53 PM 82.0 °F 85.9 °F 70.0 °F 67% 30.04 in 10.0 mi West 8.1 mph - N/A   Overcast
4:53 PM 81.0 °F 84.4 °F 70.0 °F 69% 30.00 in 10.0 mi Calm Calm - N/A   Overcast
5:53 PM 81.0 °F 84.4 °F 70.0 °F 69% 30.00 in 10.0 mi Calm Calm - N/A   Overcast
6:53 PM 81.0 °F 84.4 °F 70.0 °F 69% 30.00 in 10.0 mi SW 3.5 mph - N/A   Overcast
7:53 PM 80.1 °F 83.6 °F 71.1 °F 74% 30.00 in 10.0 mi West 3.5 mph - N/A   Overcast
8:53 PM 79.0 °F - 71.1 °F 77% 30.01 in 10.0 mi Calm Calm - N/A   Mostly Cloudy
9:53 PM 77.0 °F - 71.1 °F 82% 30.01 in 10.0 mi NW 4.6 mph - N/A   Mostly Cloudy
10:53 PM 78.1 °F - 71.1 °F 79% 30.03 in 10.0 mi Calm Calm - N/A   Mostly Cloudy
11:53 PM 77.0 °F - 71.1 °F 82% 30.04 in 10.0 mi West 3.5 mph - N/A   Mostly Cloudy